CAPE
0 0 0 0 0 0 0 0 0 0 0 0 0 0 0 0 0 0 0 0 0 0 0 0 0 0 0 0 0 0 0 6 8 6 11 28 30 56 58 10 1 0 0
0 0 0 0 0 0 0 0 0 0 0 0 0 0 0 0 0 0 0 0 0 0 0 0 0 0 0 0 0 0 0 0 1 2 1 0 12 36 67 59 33 0 0
0 0 0 0 0 0 0 0 0 0 0 0 0 0 0 0 0 0 0 0 0 0 0 0 0 0 0 0 0 1 3 1 0 0 0 1 3 9 12 45 45 6 0
0 0 0 0 0 0 0 0 0 0 0 0 0 0 0 0 0 0 0 0 0 0 0 0 0 0 0 0 1 2 1 0 0 2 2 2 2 0 0 0 0 6 0
0 0 0 0 0 0 0 0 0 0 0 0 0 0 0 0 0 0 0 0 0 0 0 0 0 0 0 1 2 3 2 1 2 0 0 1 2 3 5 5 7 7 1
0 0 0 0 0 0 0 0 0 0 0 0 0 0 0 0 0 0 0 0 0 0 0 0 0 0 0 0 0 0 2 1 3 4 3 4 1 0 0 0 3 4 2
0 0 0 0 0 0 0 0 0 0 0 0 0 0 0 0 0 0 0 0 0 0 0 0 0 0 0 0 0 0 0 0 1 1 0 1 2 10 2 1 1 1 2
0 0 0 0 0 0 0 0 0 0 0 0 0 0 0 0 0 0 0 0 0 0 0 0 0 0 0 0 0 0 1 1 2 2 2 1 1 3 9 3 1 0 0
0 0 0 0 0 0 0 0 0 0 0 0 0 0 0 0 0 0 0 0 0 0 0 0 0 0 0 0 0 1 1 0 0 0 0 1 3 4 3 2 1 3 0
0 0 0 0 0 0 0 0 0 0 0 0 0 0 0 0 0 0 0 0 0 0 0 0 0 0 0 0 0 0 1 1 0 0 2 0 0 8 1 3 1 1 2
0 0 0 0 0 0 0 0 0 0 0 0 0 0 0 0 0 0 0 0 0 0 0 0 0 0 0 0 0 0 1 0 0 1 0 0 0 0 0 1 1 0 0
0 0 0 0 0 0 0 0 0 0 0 0 0 0 0 0 0 0 0 0 0 0 0 0 0 0 0 0 0 0 0 0 0 0 0 0 0 0 0 1 0 0 11
0 0 0 0 0 0 0 0 0 0 0 0 0 0 0 0 0 0 0 0 0 0 0 0 0 0 0 0 0 0 0 0 0 0 0 0 0 1 2 1 0 0 0
0 0 0 0 0 0 0 0 0 0 0 0 0 0 0 0 0 0 0 0 0 0 0 0 0 0 0 0 0 0 0 0 0 0 0 0 0 0 0 0 0 0 0
0 0 0 0 0 0 0 0 0 0 0 0 0 0 0 0 0 0 0 0 0 0 0 0 0 0 0 0 0 0 0 0 0 0 0 0 0 0 0 0 0 0 1
0 0 0 0 0 0 0 0 0 0 0 0 0 0 0 0 0 0 0 0 0 0 0 0 0 0 0 0 0 0 0 0 0 0 0 0 0 0 0 0 0 0 0
0 0 0 0 0 0 0 0 0 0 0 0 0 0 0 0 0 0 0 0 0 0 0 0 0 0 0 0 0 0 0 0 0 0 0 0 0 0 0 0 0 0 0
0 0 0 0 0 0 0 0 0 0 0 0 0 0 0 0 0 0 0 0 0 0 0 0 0 0 0 0 0 0 0 0 0 0 0 0 0 0 0 0 0 0 0
0 0 0 0 0 0 0 0 0 0 0 0 0 0 0 0 0 0 0 0 0 0 0 0 0 0 0 0 0 0 0 0 0 0 0 0 0 0 0 0 0 0 0
0 0 0 0 0 0 0 0 0 0 0 0 0 0 0 0 0 0 0 0 0 0 0 0 0 0 0 0 0 0 0 0 0 0 0 0 0 0 0 0 0 0 0
0 0 0 0 0 0 0 0 0 0 0 0 0 0 0 0 0 0 0 0 0 0 0 0 0 0 0 0 0 0 0 0 0 0 0 0 0 0 0 0 0 0 0
0 0 0 0 0 0 0 0 0 0 0 0 0 0 0 0 0 0 0 0 0 0 0 0 0 0 0 0 0 0 0 0 0 0 0 0 0 0 0 0 0 0 0
0 0 0 0 0 0 0 0 0 0 0 0 0 0 0 0 0 0 0 0 0 0 0 0 0 0 0 0 0 0 0 0 0 0 0 0 0 0 0 0 0 0 0
0 0 0 0 0 0 0 0 0 0 0 0 0 0 0 0 0 0 0 0 0 0 0 0 0 0 0 0 0 0 0 0 0 0 0 0 0 0 0 0 0 0 0
0 0 0 0 0 0 0 0 0 0 0 0 0 0 0 0 0 0 0 0 0 0 0 0 0 0 0 0 0 0 0 0 0 0 0 0 0 0 0 0 0 0 0
0 0 0 0 0 0 0 0 0 0 0 0 0 0 0 0 0 0 0 0 0 0 0 0 0 0 0 0 0 0 0 0 0 0 0 0 0 0 0 0 0 0 0
CIN
-0 -0 -0 -0 -0 -0 -0 -0 -0 -0 -0 -0 -0 -0 -0 -0 -0 -0 -0 -0 -0 -0 -0 -0 -0 -0 -0 -0 -0 -0 -0 -0 -9 -0 -1 -23 -58 -57 -50 -140 -45 -0 -0
-0 -0 -0 -0 -0 -0 -0 -0 -0 -0 -0 -0 -0 -0 -0 -0 -0 -0 -0 -0 -0 -0 -0 -0 -0 -0 -0 -0 -0 -0 -0 -0 -0 -0 -0 -0 -2 -40 -37 -35 -61 -0 -0
-0 -0 -0 -0 -0 -0 -0 -0 -0 -0 -0 -0 -0 -0 -0 -0 -0 -0 -0 -0 -0 -0 -0 -0 -0 -0 -0 -0 -0 -0 -0 -0 -0 -0 -0 -0 -0 -0 -0 -2 -27 -9 -0
-0 -0 -0 -0 -0 -0 -0 -0 -0 -0 -0 -0 -0 -0 -0 -0 -0 -0 -0 -0 -0 -0 -0 -0 -0 -0 -0 -0 -0 -0 -0 -0 -0 -0 -0 -0 -0 -0 -0 -2 -1 -12 -0
-0 -0 -0 -0 -0 -0 -0 -0 -0 -0 -0 -0 -0 -0 -0 -0 -0 -0 -0 -0 -0 -0 -0 -0 -0 -0 -0 -0 -0 -0 -0 -0 -0 -0 -0 -0 -0 -0 -0 -0 -0 -0 -0
-0 -0 -0 -0 -0 -0 -0 -0 -0 -0 -0 -0 -0 -0 -0 -0 -0 -0 -0 -0 -0 -0 -0 -0 -0 -0 -0 -0 -1 -1 -1 -0 -0 -0 -0 -0 -0 -0 -0 -0 -0 -0 -0
-0 -0 -0 -0 -0 -0 -0 -0 -0 -0 -0 -0 -0 -0 -0 -0 -0 -0 -0 -0 -0 -0 -0 -0 -0 -0 -0 -0 -0 -0 -0 -0 -0 -0 -0 -0 -0 -0 -0 -0 -0 -0 -0
-0 -0 -0 -0 -0 -0 -0 -0 -0 -0 -0 -0 -0 -0 -0 -0 -0 -0 -0 -0 -0 -0 -0 -0 -0 -0 -0 -0 -0 -0 -0 -0 -0 -0 -0 -0 -0 -0 -0 -0 -0 -0 -0
-0 -0 -0 -0 -0 -0 -0 -0 -0 -0 -0 -0 -0 -0 -0 -0 -0 -0 -0 -0 -0 -0 -0 -0 -0 -0 -0 -1 -0 -0 -0 -0 -0 -0 -0 -0 -0 -0 -0 -1 -0 -0 -0
-0 -0 -0 -0 -0 -0 -0 -0 -0 -0 -0 -0 -0 -0 -0 -0 -0 -0 -0 -0 -0 -0 -0 -0 -0 -0 -0 -0 -0 -0 -0 -0 -0 -0 -0 -0 -0 -0 -1 -1 -2 -0 -1
-0 -0 -0 -0 -0 -0 -0 -0 -0 -0 -0 -0 -0 -0 -0 -0 -0 -0 -0 -0 -0 -0 -0 -0 -0 -0 -0 -0 -0 -0 -0 -0 -0 -0 -0 -0 -0 -0 -0 -0 -0 -0 -0
-0 -0 -0 -0 -0 -0 -0 -0 -0 -0 -0 -0 -0 -0 -0 -0 -0 -0 -0 -0 -0 -0 -0 -0 -0 -0 -0 -0 -0 -0 -0 -0 -0 -0 -0 -0 -0 -0 -0 -0 -0 -0 -0
-0 -0 -0 -0 -0 -0 -0 -0 -0 -0 -0 -0 -0 -0 -0 -0 -0 -0 -0 -0 -0 -0 -0 -0 -0 -0 -0 -0 -0 -0 -0 -0 -0 -0 -0 -0 -0 -0 -0 -0 -0 -0 -0
-0 -0 -0 -0 -0 -0 -0 -0 -0 -0 -0 -0 -0 -0 -0 -0 -0 -0 -0 -0 -0 -0 -0 -0 -0 -0 -0 -0 -0 -0 -0 -0 -0 -0 -0 -0 -0 -0 -0 -0 -0 -0 -0
-0 -0 -0 -0 -0 -0 -0 -0 -0 -0 -0 -0 -0 -0 -0 -0 -0 -0 -0 -0 -0 -0 -0 -0 -0 -0 -0 -0 -0 -0 -0 -0 -0 -0 -0 -0 -0 -0 -0 -0 -0 -0 -0
-0 -0 -0 -0 -0 -0 -0 -0 -0 -0 -0 -0 -0 -0 -0 -0 -0 -0 -0 -0 -0 -0 -0 -0 -0 -0 -0 -0 -0 -0 -0 -0 -0 -0 -0 -0 -0 -0 -0 -0 -0 -0 -0
-0 -0 -0 -0 -0 -0 -0 -0 -0 -0 -0 -0 -0 -0 -0 -0 -0 -0 -0 -0 -0 -0 -0 -0 -0 -0 -0 -0 -0 -0 -0 -0 -0 -0 -0 -0 -0 -0 -0 -0 -0 -0 -0
-0 -0 -0 -0 -0 -0 -0 -0 -0 -0 -0 -0 -0 -0 -0 -0 -0 -0 -0 -0 -0 -0 -0 -0 -0 -0 -0 -0 -0 -0 -0 -0 -0 -0 -0 -0 -0 -0 -0 -0 -0 -0 -0
-0 -0 -0 -0 -0 -0 -0 -0 -0 -0 -0 -0 -0 -0 -0 -0 -0 -0 -0 -0 -0 -0 -0 -0 -0 -0 -0 -0 -0 -0 -0 -0 -0 -0 -0 -0 -0 -0 -0 -0 -0 -0 -0
-0 -0 -0 -0 -0 -0 -0 -0 -0 -0 -0 -0 -0 -0 -0 -0 -0 -0 -0 -0 -0 -0 -0 -0 -0 -0 -0 -0 -0 -0 -0 -0 -0 -0 -0 -0 -0 -0 -0 -0 -0 -0 -0
-0 -0 -0 -0 -0 -0 -0 -0 -0 -0 -0 -0 -0 -0 -0 -0 -0 -0 -0 -0 -0 -0 -0 -0 -0 -0 -0 -0 -0 -0 -0 -0 -0 -0 -0 -0 -0 -0 -0 -0 -0 -0 -0
-0 -0 -0 -0 -0 -0 -0 -0 -0 -0 -0 -0 -0 -0 -0 -0 -0 -0 -0 -0 -0 -0 -0 -0 -0 -0 -0 -0 -0 -0 -0 -0 -0 -0 -0 -0 -0 -0 -0 -0 -0 -0 -0
-0 -0 -0 -0 -0 -0 -0 -0 -0 -0 -0 -0 -0 -0 -0 -0 -0 -0 -0 -0 -0 -0 -0 -0 -0 -0 -0 -0 -0 -0 -0 -0 -0 -0 -0 -0 -0 -0 -0 -0 -0 -0 -0
-0 -0 -0 -0 -0 -0 -0 -0 -0 -0 -0 -0 -0 -0 -0 -0 -0 -0 -0 -0 -0 -0 -0 -0 -0 -0 -0 -0 -0 -0 -0 -0 -0 -0 -0 -0 -0 -0 -0 -0 -0 -0 -0
-0 -0 -0 -0 -0 -0 -0 -0 -0 -0 -0 -0 -0 -0 -0 -0 -0 -0 -0 -0 -0 -0 -0 -0 -0 -0 -0 -0 -0 -0 -0 -0 -0 -0 -0 -0 -0 -0 -0 -0 -0 -0 -0
-0 -0 -0 -0 -0 -0 -0 -0 -0 -0 -0 -0 -0 -0 -0 -0 -0 -0 -0 -0 -0 -0 -0 -0 -0 -0 -0 -0 -0 -0 -0 -0 -0 -0 -0 -0 -0 -0 -0 -0 -0 -0 -0
Wind_Speed
17 18 19 20 21 21 22 23 25 25 26 27 28 29 29 30 31 32 33 34 35 36 36 38 39 39 40 40 40 41 44 44 53 52 44 42 41 40 38 39 37 41 41
18 18 20 21 22 23 24 24 25 25 26 27 28 28 29 31 31 34 35 36 38 39 39 40 41 41 42 41 42 45 45 45 48 58 54 53 52 47 39 41 38 33 37
19 20 21 22 23 24 25 25 25 25 26 27 28 29 30 31 33 35 36 37 38 38 40 41 42 43 43 45 47 46 47 48 49 51 58 52 53 50 52 49 44 45 38
20 20 21 23 23 24 24 25 26 27 28 27 28 29 29 30 34 36 37 38 38 38 39 40 41 43 46 47 47 49 49 51 52 53 57 58 55 53 51 54 58 53 54
20 21 22 22 23 23 23 24 25 25 25 25 26 28 29 29 34 37 38 37 39 39 40 41 42 44 44 47 48 50 52 53 54 56 58 60 59 58 57 55 58 57 59
19 20 21 21 22 22 23 23 23 25 26 26 28 28 30 31 35 38 40 38 39 41 42 43 44 44 48 49 49 51 52 56 58 57 60 61 63 60 58 58 62 62 66
19 20 21 22 21 22 23 23 24 25 25 25 27 29 30 32 37 39 41 39 40 42 44 46 47 48 50 52 56 57 56 54 55 58 63 62 65 61 61 64 64 67 69
18 19 20 20 21 21 22 22 23 23 25 26 28 30 31 33 38 40 41 40 41 43 45 47 49 51 52 58 60 59 58 58 57 57 59 63 62 62 63 66 68 68 68
19 21 21 19 21 21 22 23 23 24 26 27 29 31 33 34 39 41 43 42 45 47 47 48 50 52 56 59 60 62 61 59 59 62 63 66 66 65 63 64 63 65 70
20 19 18 19 20 21 22 24 24 25 27 28 30 31 33 36 39 41 45 45 48 50 49 49 50 53 58 59 59 59 63 65 66 66 63 63 63 61 59 55 57 60 63
19 17 18 19 20 22 23 24 25 27 28 30 32 33 34 36 40 43 46 47 49 50 51 51 51 56 57 57 56 55 59 63 63 61 62 60 59 58 58 56 56 56 59
17 17 18 19 20 22 23 25 26 28 30 32 34 35 36 38 40 43 47 47 48 50 51 51 53 56 55 54 53 56 57 56 56 58 58 58 58 58 58 58 59 60 59
18 18 19 20 21 22 24 26 27 29 32 34 36 38 39 39 40 44 46 47 47 49 48 51 53 53 52 50 52 53 52 51 53 55 56 56 55 56 57 56 56 57 58
18 18 19 20 22 23 24 26 28 31 33 35 37 39 40 41 42 44 46 46 47 48 49 49 48 48 48 48 48 49 49 50 52 53 55 55 55 55 56 55 57 57 56
18 19 20 21 23 25 26 27 29 30 32 35 36 38 41 42 43 45 47 48 48 48 49 46 47 47 48 49 49 50 50 51 53 54 56 57 57 57 57 57 56 56 55
18 20 21 22 24 26 28 29 27 29 31 32 34 37 38 39 42 44 45 46 47 46 45 47 47 47 48 50 51 53 52 54 55 56 56 56 58 58 59 58 55 54 55
19 21 22 24 25 27 28 30 32 31 32 31 35 37 37 40 41 43 44 44 42 42 42 43 45 46 48 49 50 51 54 53 54 54 56 57 57 57 58 58 56 55 56
20 22 23 24 26 27 28 30 31 34 36 35 35 37 37 40 41 42 42 40 41 40 40 43 44 46 47 49 50 51 52 52 53 54 55 55 56 57 58 58 56 57 57
21 22 23 24 25 27 28 30 32 33 36 37 37 36 36 39 38 39 38 39 41 41 41 43 44 45 47 48 48 49 50 51 52 53 54 55 57 56 57 57 56 57 57
21 22 24 25 26 28 30 31 33 35 36 38 39 39 38 40 39 39 38 38 39 40 42 43 44 45 46 47 47 48 48 49 50 51 53 54 56 55 56 57 55 57 55
23 24 25 27 28 29 30 33 34 35 37 37 38 37 37 38 38 37 38 38 39 41 42 43 44 45 45 45 46 46 47 48 49 50 51 52 54 56 54 55 54 54 54
24 26 27 28 29 31 32 33 34 34 35 36 36 35 36 36 36 36 37 38 39 40 41 42 43 43 43 44 44 45 46 47 48 48 50 51 51 52 53 53 54 54 53
26 27 29 30 30 31 32 32 33 33 33 34 35 35 36 36 36 37 38 39 40 41 41 41 42 42 41 40 40 41 43 45 44 45 47 48 48 50 52 54 53 53 52
26 28 30 30 30 31 31 31 31 32 32 33 34 34 35 35 36 38 38 39 40 41 41 41 41 41 41 40 39 39 40 40 41 42 42 42 46 49 52 53 52 52 51
28 29 29 29 29 29 29 30 31 31 32 33 33 34 35 35 36 37 38 39 40 41 41 41 41 41 40 40 40 40 40 40 40 39 38 39 43 49 50 50 52 51 50
26 26 26 26 27 28 29 30 30 31 32 32 33 33 34 36 37 38 39 40 40 41 41 41 41 40 40 40 40 41 40 40 40 39 39 40 42 46 50 51 51 50 48
Wind_Direction
344 344 341 338 336 334 333 330 329 329 329 329 330 329 330 331 331 330 328 329 327 327 328 327 327 328 326 325 324 321 317 317 309 309 314 315 313 313 311 308 301 300 298
337 335 332 330 329 330 331 330 330 330 332 331 331 331 331 331 332 330 330 329 327 326 327 327 326 327 326 326 324 319 318 317 314 306 310 309 308 312 313 311 310 307 299
326 326 327 326 326 326 328 330 331 330 331 331 330 333 332 331 331 332 330 330 329 329 328 328 327 326 326 324 321 320 318 316 315 312 307 311 311 313 309 307 307 306 304
318 323 326 327 327 327 329 332 332 328 328 332 333 334 335 335 335 333 333 332 331 333 332 331 330 328 326 324 324 321 319 317 315 312 309 309 310 311 310 308 302 303 299
318 321 324 328 326 328 329 331 335 338 338 339 343 340 340 341 338 335 333 333 332 332 333 332 330 329 328 326 324 322 321 319 316 313 310 308 309 309 308 307 303 304 297
318 320 323 324 323 325 328 330 336 336 332 333 338 343 340 340 337 336 334 334 333 332 331 331 331 331 329 327 326 324 322 317 314 313 311 308 306 307 307 305 303 301 296
314 317 318 317 319 325 327 330 330 331 339 342 342 341 339 338 336 335 334 334 334 333 332 331 330 331 329 327 324 321 319 318 315 312 308 308 307 307 306 303 301 298 294
309 315 318 320 320 324 322 331 337 339 338 339 339 338 336 335 335 335 334 335 334 334 334 332 330 329 329 326 323 321 320 317 315 314 311 308 308 306 304 302 300 297 294
306 310 314 323 318 325 326 328 335 334 333 335 335 335 334 334 334 334 334 333 331 331 333 332 331 329 329 327 326 323 321 320 319 316 313 309 305 305 303 301 298 297 293
305 312 317 320 318 321 323 325 329 331 329 332 331 334 333 331 333 334 335 331 329 329 331 332 332 331 330 329 328 326 324 323 321 319 317 315 311 308 305 300 297 297 296
304 312 315 318 318 319 321 324 325 326 327 328 328 329 330 331 331 333 334 332 330 330 330 330 331 331 331 331 330 329 327 325 323 321 319 318 317 313 310 307 303 296 294
304 309 312 315 316 317 319 321 322 323 324 326 327 327 329 331 331 332 333 333 333 331 330 331 331 331 331 332 332 331 330 329 327 325 324 323 320 318 315 310 304 300 295
302 307 310 313 314 316 317 319 320 323 324 324 325 326 327 330 332 333 333 333 333 332 331 330 331 332 332 334 334 333 334 333 331 328 324 324 323 322 319 316 312 307 301
301 306 310 311 313 316 318 320 321 323 323 324 325 326 327 329 330 332 332 332 332 332 331 332 332 334 334 335 336 336 336 334 332 328 326 325 324 324 322 321 316 313 308
302 306 309 311 313 315 318 319 321 324 324 324 326 327 326 327 329 330 331 331 331 331 332 333 334 335 335 335 335 334 333 332 330 329 327 325 323 322 321 321 319 315 311
303 306 309 310 313 316 317 318 322 324 326 327 328 328 328 328 329 331 332 332 332 333 333 333 333 334 334 333 332 332 332 331 329 328 327 326 323 321 319 319 319 318 313
305 307 309 312 314 316 317 318 319 322 324 325 327 329 330 330 330 331 332 332 334 335 333 333 333 333 333 333 332 332 331 331 330 329 327 326 324 322 319 317 316 316 314
308 310 312 314 315 317 318 319 320 320 320 323 326 328 329 331 331 332 333 334 333 335 334 333 332 333 332 332 332 332 332 331 331 330 328 327 325 323 319 317 315 314 313
309 311 314 315 317 318 319 319 320 320 320 321 325 327 330 331 332 333 335 333 332 332 332 332 332 332 332 332 332 332 332 332 331 330 329 327 325 323 319 318 314 313 312
312 314 315 315 316 317 318 318 319 320 321 322 323 324 328 329 329 330 332 332 331 331 331 331 331 332 332 332 332 332 332 332 332 332 330 329 326 323 319 316 314 312 311
310 312 314 314 315 316 318 317 319 320 320 322 324 326 327 328 327 329 330 330 330 329 329 330 331 332 332 332 333 333 333 332 333 332 332 330 328 323 320 316 313 312 310
310 311 312 313 315 315 317 318 319 320 321 322 324 326 327 328 328 328 329 329 329 330 330 330 330 331 332 332 332 332 332 332 332 332 332 331 329 325 321 316 312 311 309
310 311 312 313 315 316 317 318 319 321 322 323 324 325 327 327 328 328 328 329 329 330 331 331 331 331 332 332 332 332 332 332 333 333 332 332 331 327 322 316 313 310 308
312 312 313 314 315 316 318 319 321 322 322 323 324 325 326 327 327 327 328 329 330 331 331 332 332 331 331 331 332 332 332 332 332 332 332 332 330 327 321 316 313 309 307
310 311 313 314 316 318 319 320 321 322 322 323 325 326 326 327 327 328 329 329 330 331 332 332 332 332 331 331 331 330 331 331 332 332 331 330 329 325 321 317 313 309 306
311 313 315 316 317 318 319 320 321 322 323 324 325 326 326 327 327 328 328 329 330 330 331 332 332 332 332 332 331 332 332 332 332 332 332 331 331 328 321 316 311 310 306